Location: ????????
(55.6189°N, 38.3031°E)
Time: 11:19:30
(UTC+00:00)

Cosmos 1151 Rocket - Pass Details

Date: 15 November 2019
Orbit: 592 x 616 km, 82.5° (Epoch: 14 December)

Event Time Altitude Azimuth Distance (km) Brightness Sun altitude
Exits shadow 02:18:04 - 351° (N) 2,766 6.3 -22.6°
Reaches altitude 10° 02:20:03 10° 357° (N) 1,992 5.6 -22.3°
Maximum altitude 02:24:18 47° 71° (ENE) 825 4.0 -21.7°
Drops below altitude 10° 02:28:31 10° 146° (SE) 1,969 6.1 -21.1°
Sets 02:30:48 0° 153° (SSE) 2,866 6.9 -20.8°
